DELTA 1 DEB, 42631

Orbit data source: Space-Track

DELTA 1 DEB, 42631 is space debris in SSO originally from a launch on Thu, 12 Jun 1975 UTC launched from the Air Force Western Test Range (AFWTR). Debris objects in space refer to the collection of defunct objects orbiting the Earth. Examples of debris include non-operational satellites, rocket bodies, and fragments generated from explosions, collisions, or faulty payload assembly.

Loading next visibility...
Identifier
42631, 1975-052LQ
Orbit
SSO
Country
Flag of USUS
Related business
Manufacturer
Unknown
Mission
Spacecraft
Bus & Motor
Unknown
Mass
Unknown
Launch date (UTC)
1975-06-12 (51 years ago)
Launch vehicle
Unknown
Launch site
Air Force Western Test Range (AFWTR)
Object type
Payload
Rocket body
Debris
Shape & HBR
Unknown shape, 0.1 m
Radar Cross Section
Small (<0.1 m²)

Expand to show TLE details & history
Last TLE update: 6 days ago

TLE from 6 days ago
0 DELTA 1 DEB
1 42631U 75052LQ  25348.00521203  .00000160  00000-0  28936-3 0  9998
2 42631  99.7618 256.2857 0044847  28.6856 331.6735 13.56331262596915
Epoch: 2025-12-14T00:07Z
TLE epoch observation values (Epoch: 2025-12-14T00:07:30.319Z)
Latitude
-0.00001°
Longitude
171.48503°
Altitude
1,022.555 km
Speed
7.355 km/s
True Right ascension
17h 05m 08s
True Declination
0° 00' 00"
Sunlit
Object was in daylight at epoch
Visualization orbit readout
Latitude
Unknown
Longitude
Unknown
Altitude
Unknown
Speed
Unknown
Apparent Right ascension
Unknown
Apparent Declination
Unknown
Sunlit
N/A
Visualization observer readout
Local Sidereal Time
07:10:15
Azimuth
Unknown
Elevation
Unknown
Doppler factor
Unknown
Orbital elements
Apogee altitude
1,079.648 km
Perigee altitude
1,013.055 km
Semi-major axis
7,424.488 km
Eccentricity
0.00448
Inclination
99.7618°
RAAN
256.2857°
Arg. of periapsis
28.6856°
True anomaly
331.42844°
Mean anomaly
331.6735°
Eccentric anomaly
331.55109°
Mean motion
3.39268 °/min
Orbital period
106.11 mins
BSTAR
0.00028936
Loading maneuver chart data...
Computing Atmospheric mass density...
Loading historical data...
Loading historical data...
Loading historical data...
Loading historical data...
Loading historical data...
Loading historical data...
Loading historical data...

Documentation

Showing up to 5 results
|